Covington, KY

10:33 PM EDT on June 24, 2018 (GMT -0400)
Cincinnati-Northern KY International

Weather History for KCVG - August, 2017

Change the Weather History Date:

Friday, August 18, 2017

  Actual Average Record
Temperature  
Mean Temperature 78 °F 75 °F  
Max Temperature 84 °F 85 °F 98 °F (1988)
Min Temperature 71 °F 65 °F 50 °F (1953)
Degree Days  
Heating Degree Days 0 0  
Month to date heating degree days 1 0  
Since 1 June heating degree days 8 15  
Since 1 July heating degree days 1 0  
Cooling Degree Days 13 10  
Month to date cooling degree days 149 189  
Year to date cooling degree days 828 848  
Since 1 June cooling degree days 694 754  
Growing Degree Days 28 (Base 50)    
Moisture  
Dew Point 70 °F    
Average Humidity 76    
Maximum Humidity 100    
Minimum Humidity 51    
Precipitation  
Precipitation 0.00 in 0.13 in 1.26 in (2001)
Month to date precipitation 1.17 2.06  
Year to date precipitation 35.63 28.44  
Snow  
Snow 0.00 in 0.00 in 0.00 in ()
Month to date snowfall 0.0 0.0  
Since 1 June snowfall 0.0 0.0  
Since 1 July snowfall 0.0 0.0  
Snow Depth 0.00 in    
Sea Level Pressure  
Sea Level Pressure 29.87 in    
Wind  
Wind Speed 8 mph (WSW)    
Max Wind Speed 21 mph    
Max Gust Speed 26 mph    
Visibility 8 miles    
Events Fog    
T = Trace of Precipitation, MM = Missing Value Source: NWS Daily Summary

Daily Weather History Graph

Daily Weather History Graph

Search for Another Location

Airport or City:

Astronomy

Aug. 18, 2017 Rise Set
Actual Time 6:54 AM EDT 8:29 PM EDT
Civil Twilight 6:26 AM EDT 8:57 PM EDT
Nautical Twilight 5:52 AM EDT 9:31 PM EDT
Astronomical Twilight 5:16 AM EDT 10:07 PM EDT
Moon 3:24 AM EDT (8/18) 6:09 PM EDT (8/18)
Length of Visible Light 14h 30m
Length of Day
13h 34m
Waning Crescent, 13% of the Moon is Illuminated
Aug 18
Waning Crescent
Aug 21
New
Aug 29
First Quarter
Sep 6
Full
Sep 13
Last Quarter

Hourly Weather History & Observations

Time (EDT) Temp. Heat Index Dew Point Humidity Pressure Visibility Wind Dir Wind Speed Gust Speed Precip Events Conditions
12:22 AM 73.0 °F - 73.0 °F 100% 29.88 in 6.0 mi SSW 8.1 mph - N/A   Mostly Cloudy
12:52 AM 73.9 °F - 73.9 °F 100% 29.84 in 7.0 mi SSW 8.1 mph - N/A   Overcast
1:52 AM 73.9 °F - 73.9 °F 100% 29.83 in 8.0 mi SSW 8.1 mph - N/A   Overcast
2:52 AM 73.9 °F - 73.9 °F 100% 29.82 in 6.0 mi WSW 6.9 mph - N/A   Overcast
3:40 AM 73.9 °F - 73.9 °F 100% 29.85 in 6.0 mi SW 6.9 mph - N/A   Mostly Cloudy
3:49 AM 73.4 °F - 73.4 °F 100% 29.85 in 6.0 mi SW 6.9 mph - N/A   Overcast
3:52 AM 73.9 °F - 73.9 °F 100% 29.82 in 6.0 mi SW 5.8 mph - N/A   Overcast
4:08 AM 73.9 °F - 73.9 °F 100% 29.85 in 7.0 mi SW 5.8 mph - N/A   Mostly Cloudy
4:52 AM 73.9 °F - 73.9 °F 100% 29.83 in 7.0 mi WSW 3.5 mph - N/A   Mostly Cloudy
5:06 AM 73.9 °F - 73.9 °F 100% 29.86 in 6.0 mi SW 4.6 mph - N/A   Overcast
5:09 AM 73.9 °F - 73.9 °F 100% 29.86 in 6.0 mi SW 5.8 mph - N/A   Overcast
5:52 AM 73.0 °F - 73.0 °F 100% 29.85 in 8.0 mi SW 4.6 mph - N/A   Mostly Cloudy
6:03 AM 73.0 °F - 73.0 °F 100% 29.88 in 5.0 mi SW 3.5 mph - N/A   Partly Cloudy
6:24 AM 73.0 °F - 73.0 °F 100% 29.88 in 5.0 mi WSW 5.8 mph - N/A   Mostly Cloudy
6:52 AM 72.0 °F - 72.0 °F 100% 29.86 in 4.0 mi SW 3.5 mph - N/A   Mostly Cloudy
6:54 AM 73.0 °F - 73.0 °F 100% 29.89 in 4.0 mi SW 3.5 mph - N/A Fog Patches of Fog
7:52 AM 73.4 °F - 73.4 °F 100% 29.86 in 6.0 mi SW 4.6 mph - N/A   Partly Cloudy
8:52 AM 73.9 °F - 73.0 °F 97% 29.88 in 10.0 mi West 8.1 mph - N/A   Scattered Clouds
9:52 AM 75.9 °F - 72.0 °F 87% 29.88 in 10.0 mi West 11.5 mph - N/A   Mostly Cloudy
10:52 AM 79.0 °F - 71.1 °F 77% 29.89 in 10.0 mi West 8.1 mph - N/A   Partly Cloudy
11:52 AM 81.0 °F 83.8 °F 68.0 °F 65% 29.90 in 10.0 mi West 10.4 mph - N/A   Mostly Cloudy
12:52 PM 82.0 °F 84.1 °F 66.0 °F 58% 29.90 in 10.0 mi West 11.5 mph 19.6 mph N/A   Mostly Cloudy
1:52 PM 82.9 °F 85.4 °F 66.9 °F 58% 29.89 in 10.0 mi WSW 10.4 mph - N/A   Mostly Cloudy
2:52 PM 84.0 °F 85.8 °F 64.9 °F 53% 29.89 in 10.0 mi West 17.3 mph 25.3 mph N/A   Mostly Cloudy
3:52 PM 82.9 °F 84.6 °F 64.9 °F 54% 29.88 in 10.0 mi WNW 15.0 mph - N/A   Mostly Cloudy
4:52 PM 84.0 °F 85.4 °F 64.0 °F 51% 29.88 in 10.0 mi West 15.0 mph - N/A   Scattered Clouds
5:52 PM 82.9 °F 84.4 °F 64.0 °F 53% 29.88 in 10.0 mi West 10.4 mph - N/A   Partly Cloudy
6:52 PM 82.0 °F 83.4 °F 64.0 °F 54% 29.88 in 10.0 mi West 11.5 mph - N/A   Partly Cloudy
7:52 PM 79.0 °F - 64.9 °F 62% 29.89 in 10.0 mi WSW 5.8 mph - N/A   Partly Cloudy
8:52 PM 77.0 °F - 66.0 °F 69% 29.89 in 10.0 mi SW 4.6 mph - N/A   Partly Cloudy
9:52 PM 73.9 °F - 66.0 °F 76% 29.91 in 10.0 mi SW 5.8 mph - N/A   Clear
10:52 PM 73.0 °F - 66.0 °F 79% 29.91 in 10.0 mi WSW 5.8 mph - N/A   Clear
11:52 PM 72.0 °F - 66.0 °F 81% 29.91 in 10.0 mi West 4.6 mph - N/A   Clear